User: anonymous   Login
Location: Unspecified
(0.0000°N, 0.0000°E)
Time: 15:40:45
(UTC+00:00)
Language:

50 SAT - Orbit

View from above orbital plane
View from above orbital plane
View from above satellite
View from above satellite

Ground track
Ground track

The orbit data is extracted from the following two-line orbital elements,

1 39436U 13066W   18109.35363045  .00205039  00000-0  12883-2 0  9992
2 39436  97.7133 241.7380 0005031 292.7698  67.3034 15.76130583244084
Epoch (UTC): 19 April 2018 08:29:13
Eccentricity: 0.0005031
inclination: 97.7133°
perigee height: 338 km
apogee height: 345 km
right ascension of ascending node: 241.7380°
argument of perigee: 292.7698°
revolutions per day: 15.76130583
mean anomaly at epoch: 67.3034°
orbit number at epoch: 24408

The dashed part of the orbit path shows where the satellite is in the earth's shadow,  

DLR